Location: *
(34.8620°S, 39.3380°E)
Time: 03:16:03
(UTC+00:00)

Cosmos 1300 - Pass Details

Date: 07 December 2021
Orbit: 509 x 511 km, 82.5° (Epoch: 22 January)

Event Time Altitude Azimuth Distance (km) Brightness Sun altitude
Exits shadow 20:52:43 11° 138° (SE) 1,725 5.8 -32.2°
Drops below altitude 10° 20:52:43 10° 138° (SE) 1,729 5.8 -32.2°
Sets 20:55:22 0° 156° (SSE) 2,653 7.1 -32.3°
